ANJALA Weather Reports


time (UTC)temp
C
wind
direction
speed
KPH
gust
KPH
rain 1hr
cm
rain 24hr
cm
rain mn
cm
humidity
%
barometer
mb
20260502130700 20 0.0 0.0 0.00 0.00 0.00 34
20260502122700 20 0.0 0.0 0.00 0.00 0.00 37
20260502120700 20 0.0 0.0 0.00 0.00 0.00 38
20260502114700 20 0.0 0.0 0.00 0.00 0.00 41
20260502112700 19 0.0 0.0 0.00 0.00 0.00 41
20260502110700 19 0.0 0.0 0.00 0.00 0.00 42
20260502104700 18 0.0 0.0 0.00 0.00 0.00 45
20260502102700 18 0.0 0.0 0.00 0.00 0.00 43
20260502100700 19 0.0 0.0 0.00 0.00 0.00 41
20260502090700 18 0.0 0.0 0.00 0.00 0.00 41
20260502070659 13 0.0 0.0 0.00 0.00 0.00 53
20260502064659 13 0.0 0.0 0.00 0.00 0.00 58
20260502062659 12 0.0 0.0 0.00 0.00 0.00 58
20260502060659 11 0.0 0.0 0.00 0.00 0.00 67
20260502054659 10 0.0 0.0 0.00 0.00 0.00 69
20260502052659 10 0.0 0.0 0.00 0.00 0.00 67
20260502050659 8 0.0 0.0 0.00 0.00 0.00 68
20260502044659 8 0.0 0.0 0.00 0.00 0.00 73
20260502042659 7 0.0 0.0 0.00 0.00 0.00 79
20260502040658 6 0.0 0.0 0.00 0.00 0.00 84
20260502034658 3 0.0 0.0 0.00 0.00 0.00 98
20260502032658 2 0.0 0.0 0.00 0.00 0.00 98
20260502030658 2 0.0 0.0 0.00 0.00 0.00 96
20260502024658 3 0.0 0.0 0.00 0.00 0.00 97
20260502022658 3 0.0 0.0 0.00 0.00 0.00 98
20260502020658 3 0.0 0.0 0.00 0.00 0.00 96
20260502014658 3 0.0 0.0 0.00 0.00 0.00 96
20260502012658 3 0.0 0.0 0.00 0.00 0.00 94
20260502010658 3 0.0 0.0 0.00 0.00 0.00 95
20260502004658 3 0.0 0.0 0.00 0.00 0.00 96
20260502002658 4 0.0 0.0 0.00 0.00 0.00 94
20260502000658 4 0.0 0.0 0.00 0.00 0.00 91
20260501234658 5 0.0 0.0 0.00 0.00 0.00 92
20260501232658 5 0.0 0.0 0.00 0.00 0.00 89
20260501230657 5 0.0 0.0 0.00 0.00 0.00 90
20260501224658 6 0.0 0.0 0.00 0.00 0.00 88
20260501222657 6 0.0 0.0 0.00 0.00 0.00 89
20260501220658 6 0.0 0.0 0.00 0.00 0.00 88
20260501214658 6 0.0 0.0 0.00 0.00 0.00 84
20260501212657 7 0.0 0.0 0.00 0.00 0.00 83
20260501210657 7 0.0 0.0 0.00 0.00 0.00 79
20260501204657 8 0.0 0.0 0.00 0.00 0.00 77
20260501202657 9 0.0 0.0 0.00 0.00 0.00 74
20260501200657 10 0.0 0.0 0.00 0.00 0.00 71
20260501194657 10 0.0 0.0 0.00 0.00 0.00 70
20260501192657 11 0.0 0.0 0.00 0.00 0.00 65
20260501190657 12 0.0 0.0 0.00 0.00 0.00 58
20260501184657 13 0.0 0.0 0.00 0.00 0.00 54
20260501182657 14 0.0 0.0 0.00 0.00 0.00 50
20260501180657 14 0.0 0.0 0.00 0.00 0.00 44
20260501174656 17 0.0 0.0 0.00 0.00 0.00 34
20260501172657 18 0.0 0.0 0.00 0.00 0.00 30
20260501170657 19 0.0 0.0 0.00 0.00 0.00 29
20260501164656 19 0.0 0.0 0.00 0.00 0.00 28
20260501162656 20 0.0 0.0 0.00 0.00 0.00 27
20260501160656 20 0.0 0.0 0.00 0.00 0.00 27
20260501154656 20 0.0 0.0 0.00 0.00 0.00 32
20260501152656 20 0.0 0.0 0.00 0.00 0.00 39
20260501150656 19 0.0 0.0 0.00 0.00 0.00 40
20260501144656 20 0.0 0.0 0.00 0.00 0.00 40
20260501142656 20 0.0 0.0 0.00 0.00 0.00 30